HULIANWANG DIGUI 13D

Last updated on Wed Dec 10 2025 00:02:06 GMT+0000 (Coordinated Universal Time)

1 66415U 25258D 25342.78002867 .00000516 00000+0 31109-3 0 9996 2 66415 50.0039 278.6799 0007301 351.1938 8.8844 14.20669566 4090
UTC large
Height (km)
Speed (km/s)
/
Latitude / Longitude
Inclination (degrees)
Orbital Period (minutes)
Azimuth
Elevation
Range (km)
Doppler Factor

Next 0 passes for location: London (51.5072 / 0.1276)

Sorry there are no passes over London.